Wind_Speed
8 8 8 7 6 6 5 4 4 5 5 4 4 4 5 5 6 5 6 6 7 6 6 6 6 5 5 5 4 4 3 3 2 1 1 1 1 2 2 3 3 2 1 2
10 10 10 9 8 7 6 6 7 7 7 6 6 6 6 6 6 6 6 6 7 6 6 7 7 7 6 6 5 4 4 3 3 2 2 2 2 2 3 3 3 3 3 2
12 12 11 10 9 8 8 8 9 9 8 8 7 8 8 7 7 7 7 7 7 7 7 7 7 7 7 7 6 6 5 5 4 3 4 3 3 3 4 4 4 4 4 4
14 12 12 11 10 10 10 10 10 10 9 9 7 8 10 8 8 8 8 8 8 8 8 8 7 8 7 7 7 7 6 6 6 5 4 5 5 5 5 5 5 5 5 5
14 14 14 13 12 12 12 12 11 11 10 10 9 9 11 10 9 8 8 8 8 9 9 9 8 9 8 8 7 7 7 7 7 6 5 6 6 6 6 6 6 6 6 7
16 16 16 15 14 13 13 13 12 11 11 12 12 10 11 11 10 9 9 9 9 9 9 9 9 9 9 9 9 9 8 8 8 8 8 7 7 8 7 7 8 8 8 8
17 16 16 15 15 15 14 13 12 12 12 13 14 13 13 12 11 11 11 11 11 10 10 10 10 10 10 10 10 9 9 10 10 10 10 9 9 9 9 9 8 9 9 10
18 18 17 16 16 16 16 15 14 14 14 14 15 14 14 14 12 12 12 12 12 12 12 12 12 11 12 12 11 11 11 11 12 11 11 11 11 11 11 11 11 11 11 12
19 20 19 18 18 18 18 17 17 17 17 16 16 17 16 15 14 13 13 13 14 13 13 14 14 14 14 13 13 13 14 14 14 14 14 13 13 13 13 14 14 14 14 14
20 20 20 20 19 20 20 19 18 17 18 18 17 17 17 16 15 15 14 14 15 16 16 16 16 16 16 16 15 15 15 16 16 16 16 16 16 16 16 16 16 16 16 16
21 21 21 21 21 21 21 21 21 20 19 18 18 18 18 18 17 17 17 17 17 18 18 17 18 17 17 17 17 17 17 16 17 17 18 18 17 18 18 18 18 18 18 18
22 22 22 22 22 23 23 23 23 22 22 21 20 21 20 19 18 18 18 18 19 19 19 18 18 18 17 17 17 17 17 17 18 18 19 20 20 20 20 20 21 20 20 20
22 23 23 22 24 24 25 25 24 23 23 23 21 22 22 21 20 20 20 20 20 20 19 19 20 20 19 19 18 19 19 20 20 20 21 21 22 23 23 23 23 23 22 22
24 24 24 23 23 25 26 25 25 24 24 24 23 23 23 23 22 22 22 22 22 21 21 21 21 22 22 20 20 20 21 21 21 21 22 23 23 24 25 25 25 25 25 24
26 26 26 26 26 26 25 25 25 26 25 25 25 25 25 26 25 24 23 23 23 22 22 23 23 23 23 22 22 22 23 23 23 22 23 23 24 24 25 26 27 26 26 26
28 28 27 27 26 26 26 25 25 26 26 26 26 25 25 26 25 25 25 25 24 24 24 24 25 25 25 25 25 25 25 24 24 24 24 24 25 25 26 27 28 28 28 28
29 28 27 27 27 27 28 26 26 27 26 26 26 26 26 26 25 26 26 25 25 25 25 25 26 26 26 26 25 25 26 26 25 25 25 25 26 26 26 27 28 29 29 29
29 28 28 27 27 28 27 25 26 27 26 26 27 27 27 27 26 27 27 26 26 26 26 26 26 26 27 26 26 26 26 27 27 26 26 26 27 28 28 28 29 29 30 30
29 29 29 28 28 28 28 27 26 26 25 25 26 26 27 27 27 28 28 27 27 26 26 26 26 27 27 27 27 27 28 28 28 28 27 27 28 29 30 30 30 31 31 31
29 29 29 29 28 27 27 27 26 26 26 26 26 26 26 26 27 27 27 27 27 27 28 27 27 28 28 28 29 29 29 29 29 29 29 28 29 30 31 31 32 32 32 32
29 29 29 29 29 28 28 27 26 26 26 26 26 26 26 27 27 27 28 28 28 28 29 28 29 29 29 29 30 30 30 30 29 29 29 29 29 30 30 30 31 32 32 32
30 30 30 29 29 29 29 28 28 27 26 26 26 27 27 27 28 28 28 28 29 29 29 29 29 29 29 29 30 30 30 30 30 29 29 29 28 28 28 29 29 29 30 31
30 30 30 30 30 30 30 29 29 28 27 27 27 28 28 27 28 28 28 28 29 29 29 29 29 29 29 29 29 30 30 31 30 30 30 29 28 28 28 28 28 28 29 30
30 29 29 29 29 29 30 29 29 28 27 27 27 27 27 27 27 27 27 28 28 27 28 28 28 29 29 29 29 30 30 30 29 30 30 30 29 29 28 29 29 29 30 30
30 29 29 29 29 28 28 28 27 27 27 27 27 26 26 27 27 27 27 27 28 28 28 28 28 28 29 29 28 28 29 30 30 30 30 30 30 30 30 29 29 28 28 29
28 28 28 27 27 27 27 28 27 27 27 26 27 27 26 27 27 28 27 27 27 27 27 27 27 27 27 28 28 28 29 29 30 30 30 31 31 31 31 31 31 30 30 29
Wind_Direction
209 204 207 215 222 230 243 262 284 286 298 314 324 323 320 323 332 339 340 338 333 325 320 318 319 319 314 311 307 301 310 322 301 286 294 295 221 206 206 209 205 210 204 206
221 220 222 225 232 242 254 263 278 286 294 300 306 309 309 316 321 323 325 326 326 324 320 318 312 310 307 304 303 291 287 291 293 262 260 265 269 259 241 245 245 240 241 247
222 224 228 232 240 245 255 261 269 281 289 292 298 305 308 307 312 313 313 313 315 316 314 315 309 305 301 299 294 287 286 283 290 278 261 259 265 269 262 256 255 253 254 257
227 229 233 237 244 248 257 262 270 279 284 284 287 292 298 303 307 306 307 310 307 306 307 308 305 302 298 292 286 282 279 282 280 277 272 261 262 266 263 262 261 261 263 266
234 236 239 243 248 252 256 263 269 274 277 279 285 285 289 294 301 304 304 306 304 302 303 305 301 296 292 283 281 281 277 278 273 268 271 271 268 269 269 268 268 268 270 273
237 240 243 248 251 255 259 265 270 275 279 279 279 278 279 287 292 296 300 303 302 302 301 301 299 294 289 283 279 279 275 277 275 269 268 270 273 270 270 274 271 271 276 278
240 245 247 251 254 256 259 264 272 276 279 279 277 272 272 279 284 290 293 296 297 299 298 298 294 290 285 281 278 274 272 272 272 268 267 264 269 267 268 271 272 271 273 275
243 248 251 252 252 256 259 258 259 266 273 279 276 270 274 275 277 283 285 288 289 292 292 291 291 287 286 284 274 271 273 273 271 268 265 267 268 266 266 269 270 271 272 273
243 249 253 255 255 256 258 258 260 265 269 271 273 274 273 275 275 280 283 285 288 285 285 283 284 285 285 286 277 272 272 271 269 266 265 268 266 266 266 267 269 271 273 273
246 250 254 257 258 258 258 261 262 261 267 271 276 278 276 275 276 277 277 280 283 283 281 280 281 283 283 283 281 274 272 269 265 264 265 267 268 268 268 267 268 270 273 274
247 252 255 257 258 260 261 261 261 261 262 266 272 274 276 274 276 276 274 273 277 279 279 277 279 282 283 281 280 277 273 270 266 264 265 267 269 269 267 268 269 270 272 274
248 252 255 258 261 262 262 263 264 265 267 268 269 271 275 277 276 276 275 272 273 275 275 276 277 279 280 280 280 279 275 271 268 266 266 267 269 269 268 268 268 269 270 272
250 252 257 261 263 265 265 264 264 264 267 268 269 272 275 276 275 277 275 273 273 275 274 274 273 273 275 278 279 279 276 273 271 271 271 271 271 271 269 268 267 267 269 270
252 254 254 257 262 267 269 268 266 264 265 267 268 269 272 274 274 274 275 273 272 274 275 272 270 271 272 275 277 279 279 278 277 275 274 274 273 271 270 268 267 267 267 268
256 258 258 258 259 262 265 266 266 264 265 266 269 270 271 270 270 271 272 273 271 273 272 270 269 270 272 274 275 276 278 279 279 278 277 276 273 272 271 270 268 266 267 267
257 259 260 260 261 263 263 263 264 264 265 267 268 270 270 270 269 269 271 271 271 272 270 270 269 269 270 272 275 277 277 277 278 279 278 277 275 273 273 271 269 269 268 267
257 258 259 261 262 264 263 263 263 264 265 267 267 269 270 270 270 271 271 271 271 271 270 270 268 268 269 271 274 276 277 277 279 279 278 276 275 275 275 273 272 271 269 269
255 256 258 260 261 261 265 266 265 266 266 266 266 268 270 271 270 270 270 271 271 271 270 269 267 268 269 269 271 275 276 276 278 280 280 278 277 276 276 275 274 271 269 270
254 255 257 259 262 264 264 265 265 267 267 266 266 268 269 269 269 269 270 270 270 269 268 268 269 269 269 270 271 272 274 276 276 277 279 280 278 278 277 276 274 272 270 270
254 254 256 259 260 263 266 265 266 266 266 266 267 268 268 267 268 269 270 269 269 269 269 269 270 270 270 269 270 271 272 273 275 277 278 280 279 278 278 276 274 272 271 270
252 253 255 258 260 261 262 266 267 265 266 266 265 266 267 267 268 270 271 270 270 271 272 273 273 271 270 270 269 269 271 272 274 277 278 280 280 279 278 276 276 274 271 270
253 254 255 255 258 260 263 265 266 267 267 267 266 267 268 269 270 271 271 270 270 271 272 273 274 272 271 271 270 269 271 272 274 275 276 278 279 279 279 278 276 275 272 272
252 252 253 254 258 261 264 266 266 265 266 266 266 268 268 269 270 271 272 272 272 271 273 274 275 274 273 273 272 271 271 274 275 276 277 279 280 279 278 278 277 274 272 271
253 252 254 256 259 261 264 266 264 264 265 267 267 268 269 269 269 270 271 272 272 271 273 274 275 275 274 274 273 273 273 274 277 279 279 280 280 279 278 279 278 277 274 273
253 253 255 257 258 260 262 263 263 264 266 267 266 266 266 267 268 268 270 270 270 271 272 273 275 275 275 275 273 273 274 276 278 279 278 278 277 278 278 279 279 278 275 274
251 252 254 255 258 259 260 260 262 263 265 267 269 269 267 266 267 268 269 270 273 273 274 275 276 276 276 275 274 274 276 276 277 277 277 277 277 278 278 278 277 278 279 279
Height
5925 5928 5928 5929 5929 5930 5931 5931 5931 5930 5929 5929 5928 5927 5926 5924 5923 5922 5920 5919 5917 5916 5915 5914 5913 5912 5910 5910 5909 5908 5907 5906 5905 5905 5904 5903 5903 5903 5902 5902 5902 5902 5902 5903
5924 5926 5926 5927 5927 5928 5929 5930 5930 5929 5928 5927 5927 5926 5925 5924 5923 5921 5920 5919 5917 5916 5915 5914 5912 5911 5910 5909 5908 5907 5907 5906 5905 5904 5904 5903 5903 5903 5902 5902 5902 5902 5902 5902
5922 5924 5924 5925 5925 5926 5927 5927 5927 5927 5926 5926 5926 5926 5924 5923 5922 5921 5919 5918 5917 5915 5914 5913 5912 5910 5909 5908 5907 5907 5906 5905 5905 5904 5903 5903 5903 5903 5902 5902 5902 5902 5902 5902
5919 5920 5921 5922 5923 5924 5925 5925 5925 5924 5925 5925 5925 5925 5923 5922 5921 5919 5918 5917 5916 5914 5913 5912 5911 5910 5909 5907 5906 5905 5905 5904 5904 5903 5903 5902 5902 5902 5902 5901 5901 5901 5901 5901
5916 5917 5918 5920 5921 5921 5922 5922 5922 5922 5922 5923 5923 5923 5922 5920 5919 5918 5916 5915 5914 5913 5912 5911 5909 5908 5907 5906 5905 5905 5904 5903 5903 5903 5902 5902 5902 5901 5901 5901 5900 5900 5900 5900
5913 5914 5915 5917 5917 5918 5918 5919 5920 5920 5920 5921 5920 5920 5920 5918 5917 5916 5915 5914 5913 5911 5910 5909 5908 5907 5905 5904 5904 5903 5902 5902 5901 5901 5901 5901 5900 5900 5900 5899 5899 5899 5899 5898
5910 5911 5912 5913 5914 5915 5916 5918 5919 5919 5920 5919 5917 5917 5917 5915 5914 5914 5913 5912 5910 5909 5908 5907 5906 5905 5903 5902 5901 5900 5900 5900 5900 5899 5899 5899 5898 5898 5898 5897 5897 5897 5896 5896
5907 5908 5909 5910 5911 5912 5912 5914 5916 5917 5917 5916 5914 5913 5913 5912 5911 5910 5910 5909 5908 5907 5906 5905 5903 5902 5901 5900 5899 5898 5898 5897 5897 5897 5897 5896 5896 5895 5895 5895 5894 5894 5894 5893
5903 5905 5905 5905 5906 5907 5908 5909 5911 5912 5911 5911 5911 5910 5909 5908 5907 5907 5906 5905 5904 5903 5903 5902 5901 5900 5898 5897 5896 5896 5895 5894 5894 5894 5893 5893 5893 5892 5892 5892 5891 5891 5890 5890
5898 5900 5900 5901 5902 5902 5903 5904 5906 5907 5906 5907 5907 5906 5905 5904 5903 5903 5902 5901 5901 5899 5899 5898 5897 5896 5895 5894 5893 5892 5891 5891 5890 5890 5889 5889 5889 5888 5888 5888 5888 5887 5887 5886
5893 5895 5896 5896 5896 5897 5898 5899 5899 5900 5901 5902 5903 5904 5900 5899 5899 5898 5898 5897 5896 5895 5894 5893 5892 5892 5890 5889 5888 5887 5887 5886 5886 5886 5885 5885 5884 5884 5884 5884 5883 5883 5883 5882
5887 5889 5890 5891 5891 5891 5892 5893 5894 5895 5894 5895 5896 5899 5895 5894 5893 5893 5892 5891 5891 5890 5889 5888 5888 5887 5886 5885 5884 5883 5882 5882 5881 5881 5881 5880 5880 5879 5879 5879 5878 5878 5878 5877
5881 5883 5884 5885 5887 5886 5885 5886 5887 5888 5888 5889 5890 5893 5888 5888 5887 5886 5886 5885 5885 5884 5883 5883 5882 5882 5881 5880 5879 5878 5877 5877 5876 5876 5875 5875 5874 5874 5873 5873 5872 5872 5872 5872
5875 5876 5879 5881 5881 5879 5879 5879 5880 5881 5882 5882 5883 5883 5883 5881 5880 5880 5879 5879 5879 5878 5877 5877 5877 5876 5875 5874 5874 5873 5872 5871 5870 5870 5869 5869 5868 5867 5866 5866 5866 5866 5865 5865
5867 5869 5870 5871 5871 5872 5872 5873 5873 5873 5874 5875 5876 5875 5875 5874 5874 5873 5873 5872 5872 5872 5871 5871 5870 5870 5869 5868 5868 5867 5866 5865 5864 5863 5863 5862 5861 5860 5859 5859 5858 5858 5858 5858
5859 5861 5862 5863 5863 5864 5864 5865 5865 5866 5866 5867 5867 5867 5867 5866 5866 5866 5865 5865 5865 5865 5864 5864 5863 5863 5862 5862 5861 5860 5859 5858 5857 5857 5856 5855 5854 5853 5852 5852 5851 5851 5851 5851
5851 5852 5854 5855 5856 5855 5856 5858 5858 5858 5858 5859 5859 5860 5859 5858 5858 5858 5857 5857 5857 5857 5857 5856 5856 5855 5855 5855 5854 5853 5852 5851 5850 5849 5848 5847 5847 5846 5845 5844 5843 5843 5843 5843
5842 5844 5846 5847 5848 5848 5851 5850 5850 5850 5850 5851 5851 5851 5851 5850 5850 5849 5849 5849 5849 5849 5849 5848 5848 5847 5847 5847 5846 5846 5845 5844 5843 5842 5841 5839 5838 5837 5836 5835 5835 5834 5834 5834
5834 5836 5837 5839 5839 5840 5842 5842 5842 5842 5843 5842 5842 5842 5842 5842 5842 5841 5841 5841 5841 5841 5840 5840 5840 5840 5839 5839 5838 5838 5837 5836 5835 5834 5833 5831 5830 5829 5828 5826 5826 5825 5824 5824
5826 5827 5829 5830 5831 5833 5834 5833 5833 5835 5834 5834 5834 5834 5834 5834 5834 5834 5833 5833 5832 5832 5832 5831 5831 5831 5831 5830 5830 5830 5829 5828 5827 5826 5824 5823 5821 5820 5818 5817 5816 5815 5815 5815
5818 5819 5820 5821 5822 5824 5824 5824 5826 5827 5827 5826 5826 5826 5826 5825 5826 5826 5825 5824 5824 5824 5824 5823 5823 5823 5822 5822 5821 5821 5820 5819 5818 5817 5815 5814 5812 5811 5809 5808 5807 5806 5806 5806
5809 5811 5812 5813 5814 5817 5815 5816 5817 5818 5817 5818 5818 5818 5817 5817 5817 5817 5816 5816 5816 5815 5815 5815 5814 5814 5813 5813 5813 5812 5812 5810 5809 5808 5807 5805 5804 5802 5801 5800 5799 5798 5797 5797
5800 5802 5803 5805 5807 5807 5807 5807 5807 5808 5809 5809 5810 5810 5809 5809 5809 5808 5808 5807 5807 5807 5807 5806 5806 5805 5804 5804 5804 5803 5803 5801 5800 5799 5798 5797 5795 5794 5793 5791 5790 5790 5789 5788
5791 5793 5795 5796 5797 5797 5798 5798 5798 5799 5800 5801 5801 5801 5801 5801 5801 5800 5800 5800 5799 5799 5798 5797 5797 5796 5795 5795 5794 5794 5793 5792 5791 5790 5789 5788 5787 5786 5785 5784 5782 5781 5781 5780
5783 5785 5786 5787 5788 5789 5789 5789 5790 5791 5791 5792 5792 5792 5793 5793 5793 5792 5792 5791 5791 5790 5790 5789 5788 5787 5786 5786 5785 5784 5784 5783 5782 5781 5780 5779 5778 5777 5776 5775 5774 5772 5772 5771
5775 5777 5778 5779 5780 5780 5781 5782 5782 5783 5783 5784 5784 5784 5784 5784 5784 5784 5783 5783 5782 5782 5781 5781 5780 5779 5778 5777 5776 5775 5774 5774 5773 5772 5771 5770 5769 5768 5767 5766 5765 5764 5763 5762